Oldest pages

From PresenceWiki
Jump to: navigation, search

Showing below up to 231 results in range #1 to #231.

View (previous 250) (next 250) (20 | 50 | 100 | 250 | 500).

  1. Presence Domain‏‎ (09:42, 16 March 2009)
  2. Richard Knill‏‎ (13:25, 16 March 2009)
  3. Set Passphrase‏‎ (08:30, 17 March 2009)
  4. Domain Passphrase‏‎ (08:56, 17 March 2009)
  5. Best Use‏‎ (07:13, 18 March 2009)
  6. Advanced File Options‏‎ (09:40, 11 November 2009)
  7. Processes‏‎ (06:02, 5 January 2010)
  8. On Demand Client‏‎ (06:32, 5 January 2010)
  9. Make Your Own Drink Wednesday‏‎ (11:49, 16 June 2010)
  10. Iterative execution path‏‎ (09:19, 22 June 2010)
  11. Retrieve Data Table‏‎ (05:35, 23 June 2010)
  12. Rename File‏‎ (06:09, 23 June 2010)
  13. JMS Consumer‏‎ (06:11, 23 June 2010)
  14. Message Transporters‏‎ (08:42, 28 June 2010)
  15. Heartbeat Server‏‎ (09:54, 29 June 2010)
  16. Remote Program Call Server‏‎ (05:15, 30 June 2010)
  17. Scorecard Resource‏‎ (05:08, 1 July 2010)
  18. Inline Wikidocs links‏‎ (05:10, 1 July 2010)
  19. Store Data Table‏‎ (06:38, 1 July 2010)
  20. Suggestion provider‏‎ (10:50, 2 July 2010)
  21. Activity Archive Viewer‏‎ (04:36, 6 July 2010)
  22. Create Web Application‏‎ (07:09, 12 July 2010)
  23. About Presence V3‏‎ (09:12, 12 July 2010)
  24. Task Log Settings‏‎ (11:29, 12 July 2010)
  25. Import Tasks‏‎ (08:27, 13 July 2010)
  26. Regular expressions‏‎ (09:44, 13 July 2010)
  27. Copy File‏‎ (11:09, 13 July 2010)
  28. Securing Categories‏‎ (11:49, 13 July 2010)
  29. Connecting To Pointbase‏‎ (05:31, 14 July 2010)
  30. Messaging Platform‏‎ (06:16, 14 July 2010)
  31. Printing from Presence‏‎ (06:17, 14 July 2010)
  32. International Presence‏‎ (07:17, 14 July 2010)
  33. Surbiton‏‎ (07:24, 14 July 2010)
  34. Indialantic‏‎ (07:25, 14 July 2010)
  35. CSV Writer‏‎ (07:50, 14 July 2010)
  36. Task Explorer‏‎ (08:12, 14 July 2010)
  37. Scheduled‏‎ (08:15, 14 July 2010)
  38. Anonymous Node‏‎ (08:18, 14 July 2010)
  39. Audit Viewer‏‎ (08:34, 14 July 2010)
  40. Recipients‏‎ (09:41, 14 July 2010)
  41. SOAP‏‎ (05:57, 21 July 2010)
  42. WSDL‏‎ (11:11, 21 July 2010)
  43. Telex / Fax 400‏‎ (11:23, 22 July 2010)
  44. Telephony‏‎ (09:59, 27 July 2010)
  45. Identicality‏‎ (06:56, 29 July 2010)
  46. To Do Items‏‎ (08:10, 24 August 2010)
  47. Data Table Nodes‏‎ (10:58, 24 January 2011)
  48. New Main Page‏‎ (05:28, 3 February 2011)
  49. Scriptlet Editor‏‎ (07:55, 10 February 2011)
  50. Connecting To SQL Server‏‎ (06:01, 4 May 2011)
  51. Telephony Application Using Tapi 2.1‏‎ (10:15, 4 August 2011)
  52. FAXCOM Java Api‏‎ (10:53, 31 October 2011)
  53. TF400Gateway TroubleShooting‏‎ (10:33, 1 November 2011)
  54. IMPSCloud API‏‎ (13:42, 1 November 2011)
  55. CloudFax Server Responses‏‎ (05:36, 21 December 2011)
  56. Configuring the http server for https using the keytool‏‎ (12:50, 23 January 2012)
  57. Tutorial Pages‏‎ (05:17, 27 February 2012)
  58. Custom Servlets‏‎ (09:42, 9 March 2012)
  59. HTTP Server‏‎ (05:16, 26 March 2012)
  60. Working With FaxAttendant‏‎ (09:39, 2 April 2012)
  61. Internet Mail Archive System‏‎ (09:38, 24 May 2012)
  62. Communitcation between the AS400, CloudFaxGateway and the TF400Gateway‏‎ (04:06, 11 July 2012)
  63. IMPSCloud‏‎ (11:57, 19 July 2012)
  64. Windows Authentication In A Web Application‏‎ (08:25, 17 October 2012)
  65. IMAS System at DAS‏‎ (08:47, 17 October 2012)
  66. Socket Server Node‏‎ (08:50, 17 October 2012)
  67. Variable Nodes‏‎ (08:51, 17 October 2012)
  68. Presence User Management‏‎ (08:55, 17 October 2012)
  69. Fax Attendant‏‎ (08:57, 17 October 2012)
  70. Generate Bar Code‏‎ (10:33, 30 April 2013)
  71. Upgrading Fax Attendant‏‎ (08:00, 11 June 2013)
  72. Message Channels‏‎ (07:03, 18 March 2014)
  73. Installation Guide‏‎ (06:36, 12 August 2015)
  74. Presenceconfig.xml‏‎ (07:02, 12 August 2015)
  75. Resources‏‎ (07:38, 12 August 2015)
  76. Database Server‏‎ (07:53, 12 August 2015)
  77. Connecting To HyperSQL (hsqldb)‏‎ (09:12, 12 August 2015)
  78. Database Connectivity‏‎ (09:14, 12 August 2015)
  79. Presence Introduction‏‎ (05:51, 13 August 2015)
  80. Function Call‏‎ (03:55, 14 August 2015)
  81. Presence Server‏‎ (09:55, 19 August 2015)
  82. Administration Client‏‎ (09:58, 19 August 2015)
  83. Debug‏‎ (10:00, 19 August 2015)
  84. Heartbeat Client‏‎ (10:02, 19 August 2015)
  85. Organisation‏‎ (10:19, 19 August 2015)
  86. Object Monitor Nodes‏‎ (10:34, 19 August 2015)
  87. Sleep For n Seconds‏‎ (10:37, 19 August 2015)
  88. Parse File Action‏‎ (10:43, 19 August 2015)
  89. Flat File Parser‏‎ (10:44, 19 August 2015)
  90. Presence Text Area‏‎ (10:46, 19 August 2015)
  91. Fax Attendant 400‏‎ (10:56, 19 August 2015)
  92. Clear Data Table‏‎ (10:57, 19 August 2015)
  93. Upgrading Presence‏‎ (10:58, 19 August 2015)
  94. JSON Node‏‎ (11:00, 19 August 2015)
  95. Dynamic Task Calls‏‎ (11:01, 19 August 2015)
  96. Basic XML Writer‏‎ (11:13, 19 August 2015)
  97. XML Document Writer‏‎ (11:14, 19 August 2015)
  98. Task Design‏‎ (04:48, 20 August 2015)
  99. Server Ports‏‎ (04:50, 20 August 2015)
  100. Nested Tasks‏‎ (04:51, 20 August 2015)
  101. Transaction Control Nodes‏‎ (04:55, 20 August 2015)
  102. Error Handler‏‎ (04:56, 20 August 2015)
  103. Throw Exception‏‎ (04:57, 20 August 2015)
  104. Decision Point Nodes‏‎ (04:58, 20 August 2015)
  105. Switch Node‏‎ (04:59, 20 August 2015)
  106. Catch Up Policy‏‎ (05:00, 20 August 2015)
  107. Schedule Nodes‏‎ (05:02, 20 August 2015)
  108. Category‏‎ (05:03, 20 August 2015)
  109. Task Export‏‎ (05:05, 20 August 2015)
  110. FTP Upload‏‎ (05:08, 20 August 2015)
  111. FTP Connection Resource‏‎ (05:11, 20 August 2015)
  112. FTP Connections‏‎ (05:14, 20 August 2015)
  113. XML Query Tool‏‎ (05:26, 20 August 2015)
  114. Document Locator‏‎ (05:28, 20 August 2015)
  115. Variables‏‎ (05:31, 20 August 2015)
  116. Set Variable‏‎ (05:35, 20 August 2015)
  117. Presence Context‏‎ (05:36, 20 August 2015)
  118. Create Data Table‏‎ (05:38, 20 August 2015)
  119. Data Table‏‎ (05:40, 20 August 2015)
  120. Send Email‏‎ (05:41, 20 August 2015)
  121. Database Resource‏‎ (06:08, 20 August 2015)
  122. SQL Statement Nodes‏‎ (06:12, 20 August 2015)
  123. Function Test Console‏‎ (07:29, 20 August 2015)
  124. Function Manager‏‎ (07:30, 20 August 2015)
  125. New Function Wizard‏‎ (07:32, 20 August 2015)
  126. Jar Manager‏‎ (07:32, 20 August 2015)
  127. Scriptlet‏‎ (07:36, 20 August 2015)
  128. Category Options‏‎ (07:37, 20 August 2015)
  129. New Task Dialog‏‎ (07:38, 20 August 2015)
  130. Edit View‏‎ (07:39, 20 August 2015)
  131. Menu Options (Admin Client)‏‎ (07:39, 20 August 2015)
  132. Open Recent‏‎ (07:40, 20 August 2015)
  133. Deprecated Tasks‏‎ (07:41, 20 August 2015)
  134. Live Tasks Queue‏‎ (07:42, 20 August 2015)
  135. Web Service Properties‏‎ (07:43, 20 August 2015)
  136. Start of Task Node‏‎ (07:46, 20 August 2015)
  137. End of Task‏‎ (07:47, 20 August 2015)
  138. Execution Paths‏‎ (07:48, 20 August 2015)
  139. Task Designer‏‎ (07:50, 20 August 2015)
  140. Dataset Splitter‏‎ (07:52, 20 August 2015)
  141. Passive Node‏‎ (07:54, 20 August 2015)
  142. Resources Explorer‏‎ (07:55, 20 August 2015)
  143. Search Dialog‏‎ (07:56, 20 August 2015)
  144. Log Entry‏‎ (08:04, 20 August 2015)
  145. Fork Execution‏‎ (08:04, 20 August 2015)
  146. On Demand‏‎ (08:09, 20 August 2015)
  147. Join Forked Threads‏‎ (08:15, 20 August 2015)
  148. Start Synch Block‏‎ (08:16, 20 August 2015)
  149. End Synch Block‏‎ (08:16, 20 August 2015)
  150. Synchronize Blocks‏‎ (08:17, 20 August 2015)
  151. Event Notification Nodes‏‎ (08:18, 20 August 2015)
  152. Task‏‎ (08:44, 20 August 2015)
  153. SMTP‏‎ (08:46, 20 August 2015)
  154. Mail Accounts‏‎ (08:47, 20 August 2015)
  155. Text Template Resources‏‎ (08:48, 20 August 2015)
  156. LDAP Resource‏‎ (08:52, 20 August 2015)
  157. LDAP Query Nodes‏‎ (08:54, 20 August 2015)
  158. Anonymous Nodes‏‎ (08:55, 20 August 2015)
  159. POP Scanner‏‎ (08:58, 20 August 2015)
  160. Mail Scanner Nodes‏‎ (09:01, 20 August 2015)
  161. Task Log Viewer‏‎ (09:03, 20 August 2015)
  162. Toolbar Items‏‎ (09:03, 20 August 2015)
  163. Task Statistics Console‏‎ (09:04, 20 August 2015)
  164. Web Services Nodes‏‎ (09:09, 20 August 2015)
  165. Incoming Web Service Requests Tutorial‏‎ (09:16, 20 August 2015)
  166. Performance‏‎ (09:42, 20 August 2015)
  167. Data Filter‏‎ (10:38, 20 August 2015)
  168. Convert image file‏‎ (04:49, 21 August 2015)
  169. Sockets‏‎ (05:19, 21 August 2015)
  170. Maintenance‏‎ (05:37, 21 August 2015)
  171. Table Writer‏‎ (06:37, 21 August 2015)
  172. Web Application Creation Tutorial‏‎ (07:22, 21 August 2015)
  173. Socket Client Node‏‎ (07:23, 21 August 2015)
  174. Scrapbook‏‎ (07:25, 21 August 2015)
  175. Connecting to Oracle‏‎ (07:26, 21 August 2015)
  176. Delete File‏‎ (07:28, 21 August 2015)
  177. Presence Migration Guide‏‎ (07:32, 21 August 2015)
  178. Properties Tree‏‎ (07:33, 21 August 2015)
  179. Connecting to DB2‏‎ (07:34, 21 August 2015)
  180. Append Data Column‏‎ (07:35, 21 August 2015)
  181. JMS Producer‏‎ (07:36, 21 August 2015)
  182. Load Balancing‏‎ (07:38, 21 August 2015)
  183. Robert McGlade‏‎ (07:40, 21 August 2015)
  184. Channel Subscription‏‎ (07:41, 21 August 2015)
  185. Channel Manager‏‎ (07:42, 21 August 2015)
  186. Sort Data Table‏‎ (07:44, 21 August 2015)
  187. Custom Data Formatter Standard Option‏‎ (07:47, 21 August 2015)
  188. Database Backup‏‎ (07:47, 21 August 2015)
  189. Task Variables‏‎ (07:48, 21 August 2015)
  190. AS400 Action‏‎ (07:50, 21 August 2015)
  191. Variable Unlocker‏‎ (07:51, 21 August 2015)
  192. Connecting To Access‏‎ (07:53, 21 August 2015)
  193. Drop Duplicate Rows‏‎ (07:54, 21 August 2015)
  194. Broadcast Messages‏‎ (07:56, 21 August 2015)
  195. XSLT Processor‏‎ (07:58, 21 August 2015)
  196. CloudFax‏‎ (08:02, 21 August 2015)
  197. Connecting To AS400 / iSeries‏‎ (08:21, 21 August 2015)
  198. Architecture‏‎ (08:21, 21 August 2015)
  199. Padded Text Writer‏‎ (08:22, 21 August 2015)
  200. Calculate Column Aggregate‏‎ (08:25, 21 August 2015)
  201. Context XML Nodes‏‎ (08:28, 21 August 2015)
  202. Matt Pryor‏‎ (08:29, 21 August 2015)
  203. Graham Roberts‏‎ (08:30, 21 August 2015)
  204. Custom Nodes‏‎ (08:32, 21 August 2015)
  205. Drop Column Node‏‎ (08:36, 21 August 2015)
  206. Drop Row(s)‏‎ (08:37, 21 August 2015)
  207. Require Columns‏‎ (08:38, 21 August 2015)
  208. Merge Data‏‎ (08:53, 21 August 2015)
  209. Require Variable(s)‏‎ (08:53, 21 August 2015)
  210. Multiple Variable Setter‏‎ (08:54, 21 August 2015)
  211. Global Variables (Scope)‏‎ (08:55, 21 August 2015)
  212. HTML Table Writer‏‎ (08:57, 21 August 2015)
  213. Pdf‏‎ (09:06, 21 August 2015)
  214. Send Fax‏‎ (09:20, 21 August 2015)
  215. Send SMS‏‎ (09:20, 21 August 2015)
  216. Read Text File‏‎ (09:21, 21 August 2015)
  217. Read Binary File‏‎ (09:21, 21 August 2015)
  218. Write Text File‏‎ (09:22, 21 August 2015)
  219. Write Binary File Node‏‎ (09:22, 21 August 2015)
  220. Call Native Program‏‎ (09:24, 21 August 2015)
  221. Create Graph‏‎ (09:26, 21 August 2015)
  222. Calling On Demand Tasks‏‎ (10:54, 1 September 2015)
  223. While Node‏‎ (10:49, 3 September 2015)
  224. Rules‏‎ (10:51, 3 September 2015)
  225. Task Elements‏‎ (11:52, 4 September 2015)
  226. Loop Until‏‎ (06:00, 7 September 2015)
  227. Functions‏‎ (06:05, 7 September 2015)
  228. PDF Updated‏‎ (11:43, 7 September 2015)
  229. Read Bar Code‏‎ (04:47, 23 September 2015)
  230. Main Page‏‎ (09:23, 3 November 2017)
  231. Exit Loop Node‏‎ (09:46, 3 November 2017)

View (previous 250) (next 250) (20 | 50 | 100 | 250 | 500).